Location: Chandrammap?lem
(16.9200°N, 81.0051°E)
Time: 03:45:21
(UTC+00:00)

Yuri Rocket - Pass Details

Date: 29 May 2024
Orbit: 567 x 1906 km, 28.2° (Epoch: 17 June)

Event Time Altitude Azimuth Distance (km) Brightness Sun altitude
Rises 13:39:11 0° 296° (WNW) 2,935 9.1 -8.2°
Reaches altitude 10° 13:41:39 10° 299° (WNW) 1,934 7.3 -8.8°
Maximum altitude 13:45:56 69° 23° (NNE) 601 3.0 -9.7°
Enters shadow 13:49:28 14° 106° (ESE) 1,630 4.6 -10.4°
